Greenville, ME

12:07 PM EDT on April 25, 2017 (GMT -0400)
Greenville

Weather History for KGNR - July, 2013

Change the Weather History Date:

Saturday, July 6, 2013

  Actual Average (KMLT) Record (KMLT)
Temperature  
Mean Temperature 74 °F -  
Max Temperature 81 °F 74 °F 99 °F (1911)
Min Temperature 69 °F 55 °F 38 °F (1927)
Cooling Degree Days 10    
Growing Degree Days 24 (Base 50)    
Moisture  
Dew Point 64 °F    
Average Humidity 72    
Maximum Humidity 90    
Minimum Humidity 50    
Precipitation  
Precipitation 0.00 in - - ()
Sea Level Pressure  
Sea Level Pressure 29.97 in    
Wind  
Wind Speed 1 mph (North)    
Max Wind Speed 7 mph    
Max Gust Speed -    
Averages and records for this station are not official NWS values.
T = Trace of Precipitation, MM = Missing Value Source: NWS Daily Summary

Daily Weather History Graph

Daily Weather History Graph

Search for Another Location

Airport or City:

Trip Planner

Search our weather history database for the weather conditions in past years. The results will help you decide how hot, cold, wet, or windy it might be!

Date:

Astronomy

Jul. 06, 2013 Rise Set
Actual Time 4:56 AM EDT 8:28 PM EDT
Civil Twilight 4:19 AM EDT 9:06 PM EDT
Nautical Twilight 3:30 AM EDT 9:55 PM EDT
Astronomical Twilight 2:25 AM EDT 10:59 PM EDT
Moon 3:42 AM EDT (7/6) 7:04 PM EDT (7/6)
Length of Visible Light 16h 46m
Length of Day
15h 31m
Waning Crescent, 2% of the Moon is Illuminated
Jul 6
Waning Crescent
Jul 8
New
Jul 15
First Quarter
Jul 22
Full
Jul 29
Last Quarter

Hourly Weather History & Observations

Time (EDT) Temp. Heat Index Dew Point Humidity Pressure Visibility Wind Dir Wind Speed Gust Speed Precip Events Conditions
12:56 AM 70.0 °F - 64.9 °F 84% 30.02 in - Calm Calm - N/A   Unknown
1:56 AM 69.1 °F - 64.9 °F 87% 30.01 in - Calm Calm - N/A   Unknown
2:56 AM 71.1 °F - 64.9 °F 81% 30.00 in - Calm Calm - N/A   Unknown
3:56 AM 73.0 °F - 64.9 °F 76% 29.99 in - Calm Calm - N/A   Unknown
4:56 AM 70.0 °F - 64.9 °F 84% 30.00 in - Calm Calm - N/A   Unknown
5:56 AM 70.0 °F - 66.0 °F 87% 30.00 in - Calm Calm - N/A   Unknown
6:56 AM 70.0 °F - 66.9 °F 90% 30.00 in - Calm Calm - N/A   Unknown
7:56 AM 71.1 °F - 66.9 °F 87% 30.01 in - Variable 3.5 mph - N/A   Unknown
8:56 AM 73.0 °F - 66.9 °F 81% 30.00 in - Variable 4.6 mph - N/A   Unknown
9:56 AM 73.0 °F - 66.9 °F 81% 30.00 in - Calm Calm - N/A   Unknown
10:56 AM 73.0 °F - 66.0 °F 79% 30.00 in - Calm Calm - N/A   Unknown
11:56 AM 73.9 °F - 66.0 °F 76% 29.99 in - Calm Calm - N/A   Unknown
12:56 PM 77.0 °F - 66.0 °F 69% 29.98 in - Calm Calm - N/A   Unknown
1:56 PM 78.1 °F - 64.0 °F 62% 29.98 in - Variable 4.6 mph - N/A   Unknown
2:56 PM 79.0 °F - 63.0 °F 58% 29.95 in - Variable 3.5 mph - N/A   Unknown
3:56 PM 79.0 °F - 62.1 °F 56% 29.94 in - Calm Calm - N/A   Unknown
4:56 PM 80.1 °F 81.1 °F 61.0 °F 52% 29.92 in - Variable 3.5 mph - N/A   Unknown
5:56 PM 80.1 °F 80.9 °F 60.1 °F 50% 29.92 in - Variable 6.9 mph - N/A   Unknown
6:56 PM 77.0 °F - 60.1 °F 56% 29.92 in - Calm Calm - N/A   Unknown
7:56 PM 75.0 °F - 59.0 °F 57% 29.92 in - Variable 4.6 mph - N/A   Unknown
8:56 PM 72.0 °F - 59.0 °F 64% 29.94 in - Variable 3.5 mph - N/A   Unknown
9:56 PM 71.1 °F - 60.1 °F 68% 29.95 in - Calm Calm - N/A   Unknown
10:56 PM 70.0 °F - 60.1 °F 71% 29.95 in - Calm Calm - N/A   Unknown
11:56 PM 71.1 °F - 61.0 °F 70% 29.95 in - Variable 3.5 mph - N/A   Unknown